Regional Weather Roundup
Issued by NWS Goodland, KS

Home | Current Version | Previous Version | Text Only | Print | Product List | Glossary On
Versions: 1 2 3 4 5 6 7 8 9 10 11 12 13 14 15 16 17 18 19 20 21 22 23 24 25 26 27 28 29 30 31 32 33 34 35 36 37 38 39 40 41 42 43 44 45 46 47 48 49 50
994
ASUS43 KGLD 270408
RWRGLD

GOODLAND FORECAST AREA HOURLY WEATHER ROUNDUP
NATIONAL WEATHER SERVICE GOODLAND KS
1000 PM MDT WED JUL 26 2017

...OFFICIAL OBSERVATIONS...

CITY           SKY/WX    TMP DP  RH WIND       PRES   REMARKS
GOODLAND KS    CLOUDY    72  67  84 E5        30.15R
HILL CITY KS   CLEAR     75  69  81 NE9       30.04F
IMPERIAL NEB   CLOUDY    70  62  76 N5        30.14S
MCCOOK NEB     CLOUDY    72  68  87 NE7       30.09S
AKRON CO       CLOUDY    69  62  78 E7        30.23R
BURLINGTON CO  CLOUDY    70  66  87 E8        30.20R
LIMON CO       CLOUDY    68  65  90 NE3       30.28R
$$

...UNOFFICIAL OBSERVATIONS...

CITY           SKY/WX    TMP DP  RH WIND       PRES   REMARKS
LENORA KS        N/A     73  32  22 MISG        N/A
NORTON KS      CLEAR     73  66  78 N6        30.07
SHARON SPRINGS   N/A     71  67  88 NE5         N/A
TRENTON NEB      N/A     71  32  23 CALM        N/A
KIT CARSON CO    N/A     73  65  75 MISG        N/A
YUMA CO        FAIR      66  57  72 E3        30.19S
$$




USA.gov is the U.S. government's official web portal to all federal, state and local government web resources and services.